Date String (YYYY-MM-DD hh:mm:ss) UTC,Instrument flags,Ambient pressure (hPa),Sample flow (lpm),Bypass flow (lpm),Sample temperature (°C),Ambient temperature (°C),ASC tube jacket temperature (°C),LED temperature (°C),Box temperature (°C),Sample RH (%),Span deviation,Mass concentration (μg/m³),Mass concentration (μg/m³),Mass concentration (μg/m³)
DateTimeUTC,F1_M11,P_M11,Q1_M11,Q2_M11,T1_M11,T2_M11,T3_M11,T4_M11,T5_M11,U1_M11,ZSPAN_M11,X0_M11,X2_M11,X1_M11
2022-02-02 03:00:00,,0823.0,4.99,0.00,22.5,21.7,00.0,31.5,24.3,12.0,0000.0,0004.21,0002.86,0002.27
2022-02-02 03:01:00,,0823.0,5.02,0.00,22.5,21.7,00.0,31.5,24.2,12.0,0000.0,0004.24,0002.91,0002.31
2022-02-02 03:02:00,,0823.0,4.99,0.00,22.5,21.7,00.0,31.5,24.2,12.1,0000.0,0004.24,0002.91,0002.34
2022-02-02 03:03:00,,0823.1,5.00,0.00,22.5,21.7,00.0,31.5,24.2,12.1,0000.0,0004.54,0002.94,0002.38
2022-02-02 03:04:00,,0823.1,4.99,0.00,22.5,21.6,00.0,31.5,24.2,12.1,0000.0,0005.24,0002.95,0002.41
2022-02-02 03:05:00,,0823.1,4.99,0.00,22.4,21.6,00.0,31.5,24.2,12.1,0000.0,0005.22,0002.92,0002.41
2022-02-02 03:06:00,,0823.1,5.01,0.00,22.4,21.6,00.0,31.5,24.2,12.1,0000.0,0005.25,0002.93,0002.42
2022-02-02 03:07:00,,0823.1,4.98,0.00,22.4,21.6,00.0,31.5,24.1,12.1,0000.0,0004.99,0002.86,0002.38
2022-02-02 03:08:00,,0823.1,5.01,0.00,22.4,21.6,00.0,31.4,24.1,12.1,0000.0,0005.03,0002.78,0002.35
2022-02-02 03:09:00,,0823.1,5.00,0.00,22.4,21.5,00.0,31.4,24.1,12.1,0000.0,0004.95,0002.70,0002.32
2022-02-02 03:10:00,,0823.1,5.01,0.00,22.4,21.8,00.0,31.4,24.1,12.1,0000.0,0004.83,0002.64,0002.29
2022-02-02 03:11:00,,0823.1,5.00,0.00,22.5,22.5,00.0,31.5,24.3,12.1,0000.0,0004.80,0002.61,0002.28
2022-02-02 03:12:00,,0823.1,5.01,0.00,22.6,23.2,00.0,31.5,24.5,12.0,0000.0,0004.89,0002.61,0002.30
2022-02-02 03:13:00,,0823.1,5.00,0.00,22.7,23.2,00.0,31.5,24.6,12.0,0000.0,0004.90,0002.64,0002.33
2022-02-02 03:14:00,,0823.1,4.99,0.00,22.7,22.9,00.0,31.5,24.6,11.9,0000.0,0004.54,0002.65,0002.36
2022-02-02 03:15:00,,0823.0,4.99,0.00,22.7,22.7,00.0,31.6,24.6,11.9,0000.0,0003.88,0002.68,0002.41
2022-02-02 03:16:00,,0823.1,4.99,0.00,22.7,22.5,00.0,31.6,24.5,11.9,0000.0,0003.95,0002.75,0002.47
2022-02-02 03:17:00,,0823.1,5.01,0.00,22.7,22.4,00.0,31.6,24.5,12.0,0000.0,0004.13,0002.84,0002.54
2022-02-02 03:18:00,,0823.1,4.99,0.00,22.7,22.3,00.0,31.6,24.4,12.0,0000.0,0004.74,0002.89,0002.60
2022-02-02 03:19:00,,0823.1,5.00,0.00,22.7,22.2,00.0,31.6,24.4,12.0,0000.0,0004.94,0002.94,0002.66
2022-02-02 03:20:00,,0823.1,4.99,0.00,22.6,22.1,00.0,31.6,24.4,12.0,0000.0,0005.10,0003.06,0002.76
2022-02-02 03:21:00,,0823.1,5.01,0.00,22.6,22.0,00.0,31.6,24.4,12.0,0000.0,0005.25,0003.15,0002.86
2022-02-02 03:22:00,,0823.1,5.00,0.00,22.6,21.9,00.0,31.6,24.3,12.0,0000.0,0005.33,0003.20,0002.97
2022-02-02 03:23:00,,0823.1,5.00,0.00,22.6,21.9,00.0,31.6,24.3,12.0,0000.0,0005.39,0003.25,0003.05
2022-02-02 03:24:00,,0823.1,5.00,0.00,22.6,21.8,00.0,31.5,24.3,12.1,0000.0,0005.44,0003.30,0003.13
2022-02-02 03:25:00,,0823.1,5.00,0.00,22.6,21.8,00.0,31.5,24.2,12.1,0000.0,0005.46,0003.32,0003.16
2022-02-02 03:26:00,,0823.1,5.00,0.00,22.5,21.7,00.0,31.5,24.2,12.1,0000.0,0005.48,0003.34,0003.18
2022-02-02 03:27:00,,0823.1,4.99,0.00,22.5,21.7,00.0,31.5,24.2,12.1,0000.0,0005.45,0003.32,0003.17
2022-02-02 03:28:00,,0823.1,5.02,0.00,22.5,21.6,00.0,31.5,24.1,12.1,0000.0,0005.31,0003.28,0003.14
2022-02-02 03:29:00,,0823.1,4.98,0.00,22.5,21.6,00.0,31.5,24.1,12.1,0000.0,0004.95,0003.26,0003.09
2022-02-02 03:30:00,,0823.2,5.02,0.00,22.4,21.6,00.0,31.5,24.1,12.2,0000.0,0004.37,0003.22,0003.01
2022-02-02 03:31:00,,0823.2,4.99,0.00,22.4,21.7,00.0,31.5,24.0,12.2,0000.0,0004.24,0003.15,0002.92
2022-02-02 03:32:00,,0823.2,5.00,0.00,22.5,22.2,00.0,31.5,24.2,12.1,0000.0,0004.14,0003.10,0002.82
2022-02-02 03:33:00,,0823.2,5.00,0.00,22.6,23.0,00.0,31.6,24.5,12.1,0000.0,0003.99,0002.98,0002.70
2022-02-02 03:34:00,,0823.2,5.00,0.00,22.7,23.1,00.0,31.6,24.7,12.0,0000.0,0003.93,0002.90,0002.59
2022-02-02 03:35:00,,0823.2,5.01,0.00,22.7,22.9,00.0,31.6,24.6,12.0,0000.0,0003.79,0002.78,0002.48
2022-02-02 03:36:00,,0823.1,5.00,0.00,22.7,22.7,00.0,31.6,24.6,12.0,0000.0,0003.74,0002.73,0002.41
2022-02-02 03:37:00,,0823.1,4.99,0.00,22.7,22.5,00.0,31.6,24.5,12.0,0000.0,0003.77,0002.75,0002.41
2022-02-02 03:38:00,,0823.1,5.01,0.00,22.7,22.4,00.0,31.6,24.4,12.0,0000.0,0003.95,0002.85,0002.47
2022-02-02 03:39:00,,0823.1,4.99,0.00,22.7,22.2,00.0,31.6,24.3,12.0,0000.0,0004.05,0002.96,0002.56
2022-02-02 03:40:00,,0823.1,5.02,0.00,22.6,22.1,00.0,31.6,24.3,12.1,0000.0,0004.11,0003.06,0002.65
2022-02-02 03:41:00,,0823.2,4.99,0.00,22.6,22.0,00.0,31.6,24.2,12.1,0000.0,0004.32,0003.16,0002.76
2022-02-02 03:42:00,,0823.1,5.01,0.00,22.6,21.9,00.0,31.6,24.2,12.1,0000.0,0004.53,0003.22,0002.83
2022-02-02 03:43:00,,0823.1,4.99,0.00,22.5,21.8,00.0,31.6,24.1,12.1,0000.0,0004.58,0003.23,0002.82
2022-02-02 03:44:00,,0823.2,5.01,0.00,22.5,21.8,00.0,31.6,24.1,12.1,0000.0,0004.76,0003.24,0002.80
2022-02-02 03:45:00,,0823.2,5.01,0.00,22.5,21.7,00.0,31.5,24.1,12.1,0000.0,0004.62,0003.20,0002.78
2022-02-02 03:46:00,,0823.1,5.00,0.00,22.4,21.7,00.0,31.5,24.1,12.1,0000.0,0004.56,0003.18,0002.75
2022-02-02 03:47:00,,0823.1,5.01,0.00,22.4,21.6,00.0,31.5,24.0,12.2,0000.0,0004.68,0003.17,0002.72
2022-02-02 03:48:00,,0823.2,5.00,0.00,22.4,21.6,00.0,31.5,24.0,12.2,0000.0,0004.68,0003.14,0002.65
2022-02-02 03:49:00,,0823.1,4.98,0.00,22.4,21.6,00.0,31.5,24.0,12.2,0000.0,0004.45,0003.01,0002.55
2022-02-02 03:50:00,,0823.1,5.00,0.00,22.3,21.5,00.0,31.5,24.0,12.2,0000.0,0004.28,0002.89,0002.42
2022-02-02 03:51:00,,0823.1,5.01,0.00,22.4,21.7,00.0,31.5,24.0,12.2,0000.0,0004.10,0002.77,0002.31
2022-02-02 03:52:00,,0823.2,5.00,0.00,22.4,22.5,00.0,31.5,24.2,12.1,0000.0,0003.85,0002.61,0002.19
2022-02-02 03:53:00,,0823.2,5.00,0.00,22.6,23.2,00.0,31.5,24.5,12.1,0000.0,0003.65,0002.53,0002.12
2022-02-02 03:54:00,,0823.3,5.00,0.00,22.7,23.1,00.0,31.5,24.6,12.0,0000.0,0003.69,0002.52,0002.11
2022-02-02 03:55:00,,0823.2,5.00,0.00,22.7,22.9,00.0,31.6,24.5,12.0,0000.0,0003.57,0002.51,0002.12
2022-02-02 03:56:00,,0823.3,4.99,0.00,22.7,22.6,00.0,31.6,24.4,12.0,0000.0,0003.62,0002.54,0002.15
2022-02-02 03:57:00,,0823.2,5.01,0.00,22.6,22.4,00.0,31.6,24.3,12.0,0000.0,0003.76,0002.58,0002.16
2022-02-02 03:58:00,,0823.2,4.99,0.00,22.6,22.3,00.0,31.6,24.2,12.0,0000.0,0003.62,0002.57,0002.16
2022-02-02 03:59:00,,0823.2,5.00,0.00,22.6,22.1,00.0,31.6,24.2,12.0,0000.0,0003.63,0002.59,0002.17
